This demonstration page uses our WeatherBlox Daily Observations layout. Learn more.

Left ArrowRight Arrow

39.12711, -84.51439

Hourly Observations for September 30, 2016

Temp ( °F °C ) Dew Point ( °F °C ) Humidity (%) Winds ( mph kmh ) Pressure ( in mb ) Visibility ( mi km ) Precip ( " mm )
12:14 am 00:14 Cloudy with Rain 57 14 57 14 100 100 ENE 3 6 30.09 1019 6 10 0.00 0.00
12:53 am 00:53 Mostly Cloudy 57 14 57 14 100 100 NE 8 13 30.06 1018 10 16 0.00 0.00
1:53 am 01:53 Clear with Mist and Fog 54 12.2 54 12.2 100 100 Calm 30.03 1017 4 6 0.01 0.25
2:17 am 02:17 Clear with Mist and Fog 54 12.2 54 12.2 100 100 SSW 3 6 30.03 1017 2 2 0.00 0.00
2:20 am 02:20 Mostly Cloudy with Mist and Fog 54 12 54 12 100 100 S 3 6 30.03 1017 1 1 0.00 0.00
2:37 am 02:37 Mostly Cloudy with Mist and Fog 53 11.7 53 11.7 100 100 SE 3 6 30.03 1017 3 4 0.00 0.00
2:44 am 02:44 Cloudy with Mist and Fog 55 13 55 13 100 100 Calm 30.03 1017 6 10 0.00 0.00
2:53 am 02:53 Cloudy 56 13.3 56 13.3 100 100 Calm 30.04 1017 9 14 0.00 0.00
3:28 am 03:28 Partly Cloudy with Mist and Fog 55 13 55 13 100 100 Calm 30.03 1017 6 10 0.00 0.00
3:31 am 03:31 Partly Cloudy with Mist and Fog 55 12.8 55 12.8 100 100 Calm 30.03 1017 2 3 0.00 0.00
3:43 am 03:43 Partly Cloudy with Fog 54 12.2 54 12.2 100 100 Calm 30.03 1017 1 1 0.00 0.00
3:53 am 03:53 Mostly Cloudy with Fog 53 11.7 53 11.7 100 100 Calm 30.03 1017 1 1 0.00 0.00
4:00 am 04:00 Mostly Cloudy with Mist and Fog 54 12 54 12 100 100 Calm 30.03 1017 1 2 0.00 0.00
4:12 am 04:12 Mostly Cloudy with Mist and Fog 54 12 54 12 100 100 Calm 30.03 1017 1 2 0.00 0.00
4:21 am 04:21 Partly Cloudy with Fog 53 11.7 53 11.7 100 100 Calm 30.03 1017 1 1 0.00 0.00
4:24 am 04:24 Mostly Cloudy with Fog 52 11 52 11 100 100 S 3 6 30.03 1017 0 0 0.00 0.00
4:39 am 04:39 Mostly Cloudy with Fog 54 12.2 54 12.2 100 100 Calm 30.03 1017 1 1 0.00 0.00
4:48 am 04:48 Cloudy with Mist and Fog 54 12 54 12 100 100 ENE 3 6 30.03 1017 2 3 0.00 0.00
4:53 am 04:53 Cloudy with Mist and Fog 54 12.2 54 12.2 100 100 Calm 30.03 1017 4 6 0.00 0.00
5:20 am 05:20 Cloudy 55 13 55 13 100 100 NE 3 6 30.06 1018 8 13 0.00 0.00
5:53 am 05:53 Cloudy 56 13.3 56 13.3 100 100 NE 6 9 30.04 1017 9 14 0.00 0.00
6:50 am 06:50 Mostly Cloudy 55 13 55 13 100 100 Calm 30.03 1017 9 14 0.00 0.00
6:53 am 06:53 Mostly Cloudy 56 13.3 56 13.3 100 100 Calm 30.03 1017 9 14 0.00 0.00
7:48 am 07:48 Cloudy with Light Rain 57 14 57 14 100 100 Calm 30.03 1017 2 3 0.00 0.00
7:53 am 07:53 Cloudy with Light Rain 57 13.9 57 13.9 100 100 Calm 30.03 1017 2 3 0.03 0.76
8:40 am 08:40 Cloudy with Mist and Fog 57 14 57 14 100 100 Calm 30.03 1017 2 3 0.00 0.00
8:47 am 08:47 Cloudy with Mist and Fog 57 14 57 14 100 100 Calm 30.03 1017 4 6 0.00 0.03
8:53 am 08:53 Cloudy with Mist and Fog 58 14.4 58 14.4 100 100 Calm 30.03 1017 4 6 0.00 0.03
9:53 am 09:53 Cloudy with Mist and Fog 59 15 59 15 100 100 NE 6 9 30.04 1017 6 10 0.00 0.03
10:13 am 10:13 Cloudy 59 15 59 15 100 100 NE 5 7 30.03 1017 7 11 0.00 0.00
10:26 am 10:26 Cloudy 59 15 59 15 100 100 ENE 7 11 30.03 1017 7 11 0.00 0.00
10:53 am 10:53 Cloudy 60 15.6 59 15 96 96 Calm 30.04 1017 9 14 0.00 0.00
10:58 am 10:58 Cloudy 61 16 61 16 100 100 Calm 30.00 1016 9 14 0.00 0.00
11:53 am 11:53 Cloudy 62 16.7 58 14.4 86 86 Calm 30.03 1017 10 16 0.00 0.00
12:53 pm 12:53 Cloudy 63 17.2 57 13.9 81 81 Calm 30.03 1017 10 16 0.00 0.00
1:53 pm 13:53 Cloudy 64 17.8 59 15 84 84 SSW 6 9 30.02 1017 10 16 0.00 0.00
2:53 pm 14:53 Cloudy 64 17.8 58 14.4 81 81 S 5 7 30.00 1016 10 16 0.00 0.00
3:53 pm 15:53 Mostly Cloudy 66 18.9 58 14.4 75 75 Calm 30.00 1016 10 16 0.00 0.00
4:19 pm 16:19 Mostly Cloudy 66 18.9 57 13.9 73 73 VRB 3 6 29.97 1015 10 16 0.00 0.00
4:53 pm 16:53 Partly Cloudy 66 18.9 56 13.3 70 70 S 6 9 29.99 1016 10 16 0.00 0.00
5:53 pm 17:53 Mostly Sunny 65 18.3 55 12.8 70 70 S 7 11 30.00 1016 10 16 0.00 0.00
6:53 pm 18:53 Sunny 61 16.1 58 14.4 90 90 Calm 30.01 1016 10 16 0.00 0.00
7:53 pm 19:53 Partly Cloudy 56 13.3 56 13.3 100 100 Calm 30.01 1016 10 16 0.00 0.00
8:53 pm 20:53 Clear 56 13.3 56 13.3 100 100 Calm 30.02 1017 10 16 0.00 0.00
9:53 pm 21:53 Clear 56 13.3 56 13.3 100 100 Calm 30.03 1017 9 14 0.00 0.00
10:53 pm 22:53 Clear with Mist and Fog 54 12.2 54 12.2 100 100 Calm 30.03 1017 5 8 0.00 0.00
11:53 pm 23:53 Cloudy 54 12.2 54 12.2 100 100 Calm 30.04 1017 7 11 0.00 0.00

Powered by AerisWeather